ARIANE 42P DEB, 44508

Orbit data source: Space-Track

ARIANE 42P DEB, 44508 is space debris in LEO originally from a launch on Mon, 10 Aug 1992 UTC launched from the French Guiana (FRGUI). Debris objects in space refer to the collection of defunct objects orbiting the Earth. Examples of debris include non-operational satellites, rocket bodies, and fragments generated from explosions, collisions, or faulty payload assembly.

Loading next visibility...
Identifier
44508, 1992-052F
Orbit
LEO
Country
Flag of FRFR
Related business
Manufacturer
ArianeGroup
Mission
Spacecraft
Bus & Motor
Unknown
Mass
Unknown
Launch date (UTC)
1992-08-10 (33 years ago)
Launch vehicle
Unknown
Launch site
French Guiana (FRGUI)
Object type
Payload
Rocket body
Debris
Shape & HBR
Unknown shape, 0.2 m
Radar Cross Section
Small (<0.1 m²)

Expand to show TLE details & history
Last TLE update: 2 days ago

TLE from 2 days ago
0 ARIANE 42P DEB
1 44508U 92052F   25305.51679060  .00002626  00000-0  98856-2 0  9992
2 44508  66.0237 125.3765 0371710  32.0657 330.2391 12.72451865 74191
Epoch: 2025-11-01T12:24Z
TLE epoch observation values (Epoch: 2025-11-01T12:24:10.707Z)
Latitude
-0.00007°
Longitude
-101.71389°
Altitude
1,126.531 km
Speed
7.405 km/s
True Right ascension
08h 21m 30s
True Declination
0° 00' 00"
Sunlit
Object was in daylight at epoch
Visualization orbit readout
Latitude
Unknown
Longitude
Unknown
Altitude
Unknown
Speed
Unknown
Apparent Right ascension
Unknown
Apparent Declination
Unknown
Sunlit
N/A
Visualization observer readout
Local Sidereal Time
22:30:34
Azimuth
Unknown
Elevation
Unknown
Doppler factor
Unknown
Orbital elements
Apogee altitude
1,658.562 km
Perigee altitude
1,082.51 km
Semi-major axis
7,748.673 km
Eccentricity
0.03717
Inclination
66.0237°
RAAN
125.3765°
Arg. of periapsis
32.0657°
True anomaly
328.03661°
Mean anomaly
330.2391°
Eccentric anomaly
329.14689°
Mean motion
3.18201 °/min
Orbital period
113.14 mins
BSTAR
0.0098856
Loading maneuver chart data...
Computing Atmospheric mass density...
Loading historical data...
Loading historical data...
Loading historical data...
Loading historical data...
Loading historical data...
Loading historical data...
Loading historical data...

Documentation

Showing up to 5 results
|